FW4653 Weather Reports


Display with metric or nautical units.
time (UTC)temp
F
wind
direction
speed
MPH
gust
MPH
rain 1hr
in
rain 24hr
in
rain mn
in
humidity
%
barometer
mb
20260509150033 79 340 3.0 9.0 0.00 0.07 0.00 64 1010.9
20260509144505 79 355 2.0 8.0 0.00 0.07 0.00 65 1011.0
20260509143025 77 303 1.0 5.0 0.00 0.07 0.00 71 1011.0
20260509141555 76 284 3.0 6.0 0.00 0.07 0.00 76 1011.1
20260509140014 74 274 2.0 7.0 0.00 0.07 0.00 82 1011.2
20260509134605 73 266 3.0 7.0 0.00 0.07 0.00 84 1011.2
20260509133010 72 286 1.0 6.0 0.00 0.07 0.00 86 1011.0
20260509131527 71 329 1.0 3.0 0.00 0.07 0.00 88 1010.9
20260509130054 70 360 1.0 3.0 0.00 0.07 0.00 90 1011.0
20260509124513 68 360 1.0 5.0 0.00 0.07 0.00 91 1010.8
20260509123043 67 360 2.0 6.0 0.00 0.07 0.00 92 1010.7
20260509121554 67 360 1.0 4.0 0.00 0.07 0.00 92 1010.8
20260509120022 66 360 0.0 3.0 0.00 0.07 0.00 92 1010.6
20260509114556 66 360 1.0 5.0 0.00 0.07 0.00 92 1010.5
20260509113012 66 360 1.0 6.0 0.00 0.07 0.00 91 1010.4
20260509111551 67 360 1.0 5.0 0.00 0.07 0.00 91 1010.0
20260509110014 67 360 1.0 5.0 0.00 0.09 0.00 91 1010.1
20260509104538 67 360 1.0 6.0 0.00 0.09 0.00 90 1009.8
20260509103057 67 360 1.0 3.0 0.00 0.09 0.00 90 1009.4
20260509101531 67 360 0.0 0.0 0.00 0.09 0.00 89 1008.9
20260509100047 68 360 0.0 0.0 0.00 0.16 0.00 88 1008.9
20260509094558 68 360 0.0 0.0 0.00 0.16 0.00 87 1008.6
20260509093040 69 360 0.0 1.0 0.00 0.16 0.00 85 1008.4
20260509091600 69 360 2.0 5.0 0.00 0.16 0.00 84 1008.1
20260509091501 69 360 3.0 5.0 0.00 0.16 0.00 84 1008.2
20260509090018 70 360 1.0 4.0 0.00 0.16 0.00 82 1007.8
20260509084536 70 360 0.0 1.0 0.00 0.16 0.00 82 1007.8
20260509083056 70 360 0.0 13.0 0.00 0.16 0.00 81 1007.6
20260509081538 70 360 0.0 4.0 0.00 0.16 0.00 82 1006.1
20260509080011 69 360 4.0 12.0 0.00 0.16 0.00 87 1006.1
20260509074529 70 360 5.0 10.0 0.00 0.16 0.00 89 1007.3
20260509073004 70 360 3.0 10.0 0.00 0.16 0.00 89 1008.8
20260509071521 69 360 2.0 6.0 0.00 0.16 0.00 90 1009.6
20260509070051 69 360 2.0 6.0 0.00 0.16 0.00 90 1009.8
20260509064511 68 360 1.0 5.0 0.00 0.16 0.00 90 1010.4
20260509063047 68 360 1.0 3.0 0.00 0.16 0.00 90 1010.5
20260509061622 68 360 0.0 2.0 0.00 0.16 0.00 90 1010.8
20260509060013 68 360 0.0 3.0 0.00 0.16 0.16 89 1010.9
20260509054535 68 360 0.0 2.0 0.00 0.16 0.16 88 1010.9
20260509053007 68 360 0.0 4.0 0.00 0.16 0.16 87 1010.7
20260509051520 69 360 0.0 1.0 0.00 0.16 0.16 86 1011.2
20260509050037 70 360 2.0 6.0 0.00 0.16 0.16 86 1012.0
20260509044546 70 360 3.0 9.0 0.00 0.16 0.16 85 1012.3
20260509043010 71 360 2.0 4.0 0.00 0.16 0.16 85 1010.4
20260509041542 71 360 1.0 3.0 0.00 0.16 0.16 84 1010.4
20260509040100 71 360 2.0 5.0 0.00 0.16 0.16 84 1010.0
20260509040005 71 360 2.0 5.0 0.00 0.16 0.16 84 1009.9
20260509034538 70 360 1.0 5.0 0.00 0.16 0.16 85 1009.9
20260509033048 70 360 2.0 5.0 0.00 0.16 0.16 85 1010.0
20260509031514 70 360 1.0 4.0 0.00 0.16 0.16 84 1010.3
20260509030049 70 360 1.0 3.0 0.00 0.16 0.16 84 1010.6
20260509024506 71 360 0.0 4.0 0.00 0.16 0.16 83 1009.7
20260509023022 71 360 3.0 6.0 0.00 0.16 0.16 83 1008.9
20260509021556 71 360 2.0 4.0 0.00 0.16 0.16 83 1008.5
20260509020020 71 360 2.0 5.0 0.00 0.16 0.16 82 1008.1
20260509014537 72 360 3.0 6.0 0.00 0.16 0.16 81 1008.1
20260509013012 72 360 2.0 6.0 0.00 0.16 0.16 80 1008.1
20260509011542 72 360 2.0 4.0 0.00 0.16 0.16 79 1008.7
20260509004536 73 360 1.0 6.0 0.00 0.16 0.16 77 1008.6
20260509003046 73 360 3.0 6.0 0.00 0.16 0.16 76 1008.5
20260509001600 74 170 4.0 10.0 0.00 0.16 0.16 75 1008.2
20260509001504 74 219 4.0 10.0 0.00 0.16 0.16 75 1008.2
20260509000024 74 140 3.0 8.0 0.00 0.16 0.16 74 1008.2
20260508234558 75 150 2.0 10.0 0.00 0.16 0.16 74 1008.4
20260508233014 76 146 3.0 9.0 0.00 0.16 0.16 72 1008.5
20260508231534 76 170 4.0 8.0 0.00 0.16 0.16 71 1008.5
20260508230052 76 130 5.0 9.0 0.00 0.16 0.16 69 1008.5
20260508224531 77 182 3.0 8.0 0.00 0.16 0.16 68 1008.5
20260508223048 76 172 3.0 8.0 0.00 0.16 0.16 68 1008.6
20260508221513 76 113 3.0 9.0 0.00 0.16 0.16 68 1008.7
20260508220034 77 169 4.0 11.0 0.00 0.16 0.16 68 1008.7
20260508214559 77 128 4.0 10.0 0.00 0.16 0.16 68 1008.6
20260508213018 77 144 3.0 10.0 0.00 0.16 0.16 69 1008.6
20260508211537 76 183 5.0 12.0 0.00 0.16 0.16 68 1008.9
20260508210054 76 177 3.0 9.0 0.00 0.16 0.16 68 1008.9
20260508204534 76 136 4.0 10.0 0.00 0.16 0.16 68 1009.2
20260508203041 76 151 5.0 10.0 0.00 0.16 0.16 68 1010.0
20260508201520 75 128 6.0 10.0 0.00 0.16 0.16 68 1010.6
20260508200049 75 169 3.0 8.0 0.00 0.16 0.16 68 1011.0
20260508194509 75 182 4.0 8.0 0.00 0.16 0.16 68 1011.0
20260508193025 76 164 3.0 9.0 0.00 0.16 0.16 68 1010.9
20260508191514 76 198 3.0 9.0 0.00 0.16 0.16 69 1010.9
20260508190009 77 144 4.0 11.0 0.00 0.16 0.16 68 1011.2
20260508184522 76 222 4.0 8.0 0.00 0.16 0.16 67 1011.2
20260508183056 77 158 2.0 5.0 0.00 0.16 0.16 68 1011.4
20260508181519 75 144 2.0 8.0 0.00 0.16 0.16 69 1011.6
20260508180059 75 174 2.0 7.0 0.00 0.16 0.16 69 1012.0
20260508174511 74 153 4.0 9.0 0.00 0.16 0.16 71 1012.4
20260508173041 73 151 3.0 7.0 0.00 0.16 0.16 71 1012.5
20260508171601 72 165 3.0 9.0 0.00 0.16 0.16 70 1012.7
20260508170036 72 136 4.0 8.0 0.00 0.16 0.16 72 1012.8
20260508164518 71 170 2.0 9.0 0.00 0.16 0.16 72 1013.0
20260508163030 70 130 4.0 7.0 0.00 0.16 0.16 73 1013.5
20260508161605 69 142 4.0 8.0 0.00 0.16 0.16 73 1013.9
20260508160017 68 139 3.0 7.0 0.00 0.16 0.16 75 1014.0
20260508154549 67 173 2.0 5.0 0.07 0.16 0.16 77 1014.3
20260508153100 64 360 1.0 5.0 0.07 0.16 0.16 83 1014.4
20260508153014 64 360 1.0 5.0 0.07 0.16 0.16 83 1014.5
20260508151538 64 360 0.0 0.0 0.07 0.16 0.16 87 1014.7